Canberra, Capital Territory

5:44 AM AEST on August 26, 2016 (GMT +1000)
Canberra

Weather History for YSCB - January, 2014

Change the Weather History Date:

Sunday, January 5, 2014

  Actual Average Record
Temperature  
Mean Temperature 63 °F -  
Max Temperature 82 °F 82 °F - ()
Min Temperature 44 °F 55 °F - ()
Degree Days  
Heating Degree Days 2    
Growing Degree Days 13 (Base 50)    
Moisture  
Dew Point 37 °F    
Average Humidity 34    
Maximum Humidity 76    
Minimum Humidity 8    
Precipitation  
Precipitation 0.00 in 0.07 in - ()
Sea Level Pressure  
Sea Level Pressure 29.75 in    
Wind  
Wind Speed 10 mph ()    
Max Wind Speed 24 mph    
Max Gust Speed 34 mph    
Visibility 6.2 miles    
Events      
T = Trace of Precipitation, MM = Missing Value Source: Averaged Metar Reports

Daily Weather History Graph

Daily Weather History Graph

Search for Another Location

Airport or City:

Trip Planner

Search our weather history database for the weather conditions in past years. The results will help you decide how hot, cold, wet, or windy it might be!

Date:

Astronomy

Jan. 05, 2014 Rise Set
Actual Time 5:54 AM AEDT 8:21 PM AEDT
Civil Twilight 5:25 AM AEDT 8:51 PM AEDT
Nautical Twilight 4:48 AM AEDT 9:27 PM AEDT
Astronomical Twilight 4:08 AM AEDT 10:07 PM AEDT
Moon 10:04 AM AEDT (1/5) 10:57 PM AEDT (1/5)
Length of Visible Light 15h 26m
Length of Day
14h 26m
Waxing Crescent, 18% of the Moon is Illuminated
Jan 5
Waxing Crescent
Jan 8
First Quarter
Jan 16
Full
Jan 24
Last Quarter
Jan 31
New

Hourly Weather History & Observations

Time (AEDT) Temp. Windchill Dew Point Humidity Pressure Visibility Wind Dir Wind Speed Gust Speed Precip Events Conditions
12:00 AM 59 °F - 38 °F 34% 29.76 in - WNW 5.8 mph - -  
12:00 AM 59.0 °F - 39.2 °F 48% 29.83 in 6.2 mi WNW 5.8 mph - N/A   Unknown
12:30 AM 55.4 °F - 39.2 °F 54% 29.83 in 6.2 mi ESE 6.9 mph - N/A   Unknown
1:00 AM 59.0 °F - 39.2 °F 48% 29.83 in 6.2 mi North 4.6 mph - N/A   Unknown
1:30 AM 53.6 °F - 39.2 °F 58% 29.83 in 6.2 mi ESE 4.6 mph - N/A   Unknown
2:00 AM 53 °F - 37 °F 43% 29.74 in - South 4.6 mph - -  
2:00 AM 53.6 °F - 37.4 °F 54% 29.80 in 6.2 mi South 4.6 mph - N/A   Unknown
2:30 AM 53.6 °F - 39.2 °F 58% 29.80 in 6.2 mi ESE 3.5 mph - N/A   Unknown
3:00 AM 51 °F - 38 °F 52% 29.74 in - ESE 4.6 mph - -  
3:00 AM 50.0 °F - 39.2 °F 66% 29.80 in 6.2 mi ESE 4.6 mph - N/A   Unknown
3:30 AM 46.4 °F 43.5 °F 37.4 °F 71% 29.80 in 6.2 mi ESE 5.8 mph - N/A   Unknown
4:00 AM 46.4 °F 42.9 °F 37.4 °F 71% 29.80 in 6.2 mi SE 6.9 mph - N/A   Unknown
4:30 AM 46.4 °F 43.5 °F 37.4 °F 71% 29.80 in 6.2 mi SE 5.8 mph - N/A   Unknown
5:00 AM 47 °F - 38 °F 60% 29.75 in - ENE 3.5 mph - -  
5:00 AM 46.4 °F 45.2 °F 37.4 °F 71% 29.83 in 6.2 mi ENE 3.5 mph - N/A   Unknown
5:30 AM 46.4 °F 45.2 °F 39.2 °F 76% 29.83 in 6.2 mi NE 3.5 mph - N/A   Unknown
6:00 AM 45 °F - 38 °F 68% 29.77 in - Calm Calm - -  
6:00 AM 44.6 °F - 37.4 °F 76% 29.83 in - Calm Calm - N/A   Clear
6:30 AM 46.4 °F 45.2 °F 39.2 °F 76% 29.83 in - ENE 3.5 mph - N/A   Clear
7:00 AM 51.8 °F - 42.8 °F 71% 29.86 in - Calm Calm - N/A   Clear
7:30 AM 55.4 °F - 42.8 °F 63% 29.86 in - ESE 4.6 mph - N/A   Clear
8:00 AM 56 °F - 41 °F 46% 29.79 in - NNE 2.3 mph - -  
8:00 AM 57.2 °F - 41.0 °F 55% 29.86 in - NNE 2.3 mph - N/A   Clear
8:30 AM 60.8 °F - 41.0 °F 48% 29.86 in - NW 4.6 mph - N/A   Clear
9:00 AM 64 °F - 42 °F 33% 29.80 in - NNW 4.6 mph - -  
9:00 AM 64.4 °F - 42.8 °F 45% 29.86 in - NNW 4.6 mph - N/A   Clear
9:30 AM 68.0 °F - 41.0 °F 37% 29.86 in - WNW 11.5 mph - N/A   Clear
10:00 AM 69.8 °F - 39.2 °F 33% 29.83 in - NW 12.7 mph - N/A   Clear
10:30 AM 69.8 °F - 37.4 °F 31% 29.83 in - NNW 13.8 mph - N/A   Clear
11:00 AM 74 °F - 41 °F 20% 29.75 in - NNW 10.4 mph - -  
11:00 AM 73.4 °F - 41.0 °F 31% 29.83 in - NNW 10.4 mph 23.0 mph N/A   Clear
11:30 AM 75.2 °F - 39.2 °F 27% 29.80 in - NNW 15.0 mph - N/A   Clear
12:00 PM 77.0 °F - 39.2 °F 26% 29.80 in - NW 17.3 mph - N/A   Clear
12:30 PM 78.8 °F - 37.4 °F 23% 29.77 in - NNW 18.4 mph - N/A   Clear
1:00 PM 78.8 °F - 37.4 °F 23% 29.77 in - NNW 21.9 mph - N/A   Clear
1:25 PM 78.8 °F - 33.8 °F 20% 29.74 in - NW 21.9 mph 33.4 mph N/A   Clear
1:30 PM 78.8 °F - 35.6 °F 21% 29.77 in - NW 20.7 mph 33.4 mph N/A   Clear
1:51 PM 80.6 °F - 35.6 °F 20% 29.74 in - NNW 24.2 mph - N/A   Clear
1:54 PM 80.6 °F - 33.8 °F 18% 29.74 in - NW 23.0 mph - N/A   Clear
2:00 PM 79 °F - 36 °F 12% 29.68 in - NNW 23.0 mph - -  
2:00 PM 78.8 °F - 35.6 °F 21% 29.74 in - NNW 23.0 mph - N/A   Clear
2:12 PM 80.6 °F - 37.4 °F 21% 29.74 in - NW 21.9 mph - N/A   Clear
2:20 PM 78.8 °F - 35.6 °F 21% 29.74 in - NW 19.6 mph 31.1 mph N/A   Clear
2:30 PM 82.4 °F - 35.6 °F 19% 29.74 in - NW 23.0 mph 34.5 mph N/A   Clear
2:45 PM 82.4 °F - 35.6 °F 19% 29.71 in - West 20.7 mph - N/A   Clear
3:00 PM 82 °F - 34 °F 9% 29.65 in - WNW 18.4 mph - -  
3:00 PM 82.4 °F - 33.8 °F 17% 29.71 in - WNW 18.4 mph - N/A   Clear
3:21 PM 82.4 °F - 33.8 °F 17% 29.71 in - NW 23.0 mph - N/A   Clear
3:26 PM 82.4 °F - 35.6 °F 19% 29.71 in - NW 19.6 mph 32.2 mph N/A   Clear
3:30 PM 80.6 °F - 32.0 °F 17% 29.71 in - NW 19.6 mph 33.4 mph N/A   Clear
4:01 PM 82.4 °F - 32.0 °F 16% 29.68 in - NW 23.0 mph 34.5 mph N/A   Clear
4:30 PM 80.6 °F - 28.4 °F 15% 29.68 in - NW 18.4 mph 31.1 mph N/A   Clear
5:00 PM 82 °F - 31 °F 8% 29.61 in - WNW 23.0 mph - -  
5:00 PM 82.4 °F - 32.0 °F 16% 29.68 in - WNW 23.0 mph - N/A   Clear
5:24 PM 82.4 °F - 32.0 °F 16% 29.65 in - WNW 20.7 mph 32.2 mph N/A   Clear
5:30 PM 80.6 °F - 32.0 °F 17% 29.65 in - NW 21.9 mph - N/A   Clear
5:45 PM 82.4 °F - 33.8 °F 17% 29.65 in - WNW 19.6 mph 32.2 mph N/A   Clear
6:00 PM 81 °F - 33 °F 10% 29.60 in - WNW 23.0 mph - -  
6:00 PM 80.6 °F - 33.8 °F 18% 29.65 in - WNW 23.0 mph - N/A   Clear
6:35 PM 80.6 °F - 32.0 °F 17% 29.65 in 6.2 mi WNW 20.7 mph 34.5 mph N/A   Unknown
7:00 PM 78.8 °F - 33.8 °F 20% 29.68 in 6.2 mi WNW 19.6 mph - N/A   Unknown
7:12 PM 78.8 °F - 35.6 °F 21% 29.68 in 6.2 mi West 18.4 mph 29.9 mph N/A   Unknown
7:30 PM 77.0 °F - 33.8 °F 21% 29.68 in 6.2 mi West 20.7 mph - N/A   Unknown
8:00 PM 76 °F - 34 °F 12% 29.63 in - WNW 18.4 mph - -  
8:00 PM 75.2 °F - 33.8 °F 22% 29.71 in 6.2 mi WNW 18.4 mph - N/A   Unknown
8:30 PM 75.2 °F - 33.8 °F 22% 29.71 in 6.2 mi WNW 17.3 mph - N/A   Unknown
9:00 PM 74 °F - 35 °F 14% 29.66 in - WNW 18.4 mph - -  
9:00 PM 73.4 °F - 33.8 °F 23% 29.71 in 6.2 mi WNW 18.4 mph - N/A   Unknown
9:30 PM 73.4 °F - 35.6 °F 25% 29.74 in 6.2 mi WNW 15.0 mph - N/A   Unknown
10:00 PM 71.6 °F - 35.6 °F 27% 29.74 in 6.2 mi WNW 12.7 mph - N/A   Unknown
10:30 PM 71.6 °F - 37.4 °F 29% 29.74 in 6.2 mi WNW 13.8 mph - N/A   Unknown
11:00 PM 70 °F - 37 °F 19% 29.68 in - West 8.1 mph - -  
11:00 PM 69.8 °F - 37.4 °F 31% 29.74 in 6.2 mi West 8.1 mph - N/A   Unknown
11:30 PM 69.8 °F - 39.2 °F 33% 29.74 in 6.2 mi West 12.7 mph - N/A   Unknown